a
b
c
d

Обмен USD/RUB Москва, Пролетарская

В данном разделе сайта представлен курс обмена доллара в Москве на текущий день. Статистические данные взяты из открытых источников. Для того, чтобы удостовериться в актуальности представленных сведений обмена USD/RUB в Москве на конкретный момент времени, свяжитесь с представителями банка по указанному в карточке телефону. Для просмотра номера телефона и других сведений о банке достаточно кликнуть на его название в общей таблице. Рынок наличной валюты достаточно подвижен, поэтому данные о курсе обмена доллара и рубля постоянно обновляются. В разделе "Рынок наличной валюты" Вы сможете изучить курс покупки-продажи для разных банков и выбрать наиболее выгодный вариант обмена валюты.


Показать полностью

Обмен Долларов США и Российских рублей в Москве у метро Пролетарская


Название банка Покупка Продажа Сумма Комм. Время
ОАО МАБ "Темпбанк" ул. Крутицкий вал 67,6 69,1 1 Нет 07.09.2015
ООО РНКО "Майма" 67,9 68,9 1 Нет 07.09.2015
АО "Гринкомбанк" оквку "Площадь Ильича" 68,1099 68,8 10000 Нет 07.09.2015
АО "Гринкомбанк" оквку "Площадь Ильича" 68,0099 68,8 1000 Нет 07.09.2015
АО "Гринкомбанк" оквку "Площадь Ильича" 68,1099 68,8 20000 Нет 07.09.2015
Банк Экономический союз (ОАО) ДО "Таганский" 66,7 68,7 1 Нет 04.09.2015
"РФИ БАНК" ЗАО оквку № 107 67,9099 68,2947 1000 Нет 07.09.2015
"РФИ БАНК" ЗАО оквку № 107 68,1699 68,2947 100000 Нет 07.09.2015
"РФИ БАНК" ЗАО оквку № 107 68,1699 68,2947 10000 Нет 07.09.2015
ООО КБ "Ренессанс" оквку "3-й Крутицкий пер., д. 13" 0 68,1944 20000 Нет 06.09.2015
ООО КБ "Ренессанс" оквку "3-й Крутицкий пер., д. 13" 0 68,0444 10000 Нет 06.09.2015
ООО КБ "Ренессанс" оквку "3-й Крутицкий пер., д. 13" 0 68,0444 1000 Нет 06.09.2015
АКБ "НОВЫЙ КРЕДИТНЫЙ СОЮЗ" (ЗАО) оквку № 14 (ВОЛГОГРАДСКИЙ) 67 68 10001 Нет 05.09.2015
ООО "ЮРБ" оквку № 7 67 67,95 100001 Нет 06.09.2015
Банк Экономический союз (ОАО) ДО "Таганский" 66,7 67,4 100000 Нет 03.09.2015
АО "Гринкомбанк" оквку "Площадь Ильича" 66,8099 67,1 30000 Нет 31.08.2015
Банк СОЮЗ (АО) ДО "Волгоградский проспект" 65,4 66,4 1.0 нет 26 сен.
"Нацинвестпромбанк" (АО) ДО "Павелецкий" 65,25 66,25 1.0 нет 26 сен.
АКБ "НОВЫЙ КРЕДИТНЫЙ СОЮЗ" (ЗАО) оквку № 14 (ВОЛГОГРАДСКИЙ) 65,2 66,2 5000 Нет 01.09.2015
ООО "ЮРБ" оквку № 7 64 65,28 20001 Нет 01.09.2015
ПАО АКБ "РФА" оквку "3-й Крутицкий пер., д. 13" 63,6699 64,5901 1000 нет 23.11.2016
ПАО АКБ "РФА" оквку "3-й Крутицкий пер., д. 13" 63,6699 64,5901 10000 нет 23.11.2016
ПАО АКБ "РФА" оквку "3-й Крутицкий пер., д. 13" 63,6699 64,5901 5000 нет 23.11.2016
КБ "Нацинвестпромбанк" (АО) ДО "Павелецкий" 63,4 64,4 100 нет 06.12.2016
КБ "Нацинвестпромбанк" (АО) ДО "Павелецкий" 63,4 64,4 10000 нет 06.12.2016
КБ "Нацинвестпромбанк" (АО) ДО "Павелецкий" 63,4 64,4 1000 нет 07.12.2016
КБ "Нацинвестпромбанк" (АО) ДО "Павелецкий" 63,4 64,4 5000 нет 06.12.2016
КБ "Нацинвестпромбанк" (АО) ДО "Павелецкий" 63,4 64,4 1 нет 07.12.2016
Банк Экономический союз (ОАО) ДО "Таганский" 63,3 64,3 10000 Нет 06.08.2015
ООО КБ "Ренессанс" оквку "3-й Крутицкий пер., д. 13" 63,2099 64,2944 15000 Нет 08.08.2015
ООО КБ "Камский горизонт" ККО "Крутицкий18" 62,7 63,7 1000 нет 02.10.2016
ООО КБ "Камский горизонт" ККО "Крутицкий18" 62,7 63,7 5000 нет 02.10.2016
ООО КБ "Камский горизонт" ККО "Крутицкий18" 63 63,65 10000 нет 02.10.2016
ООО КБ "Ренессанс" оквку "3-й Крутицкий пер., д. 13" 62,7099 63,5944 5000 Нет 05.08.2015
АО КБ "ЮНИСТРИМ оквку № 325 62,8 63,5 1000.0 нет 23 июн.
ПАО БАНК "МОСКВА-СИТИ" 62 63,3 1.0 нет 29 июн.
ПАО БАНК "МОСКВА-СИТИ" 62 63,3 10001.0 нет 29 июн.
ПАО БАНК "МОСКВА-СИТИ" 62 63,3 1001.0 нет 29 июн.
АО КБ "ЮНИСТРИМ оквку № 325 63 63,3 20000.0 нет 23 июн.
АО КБ "ЮНИСТРИМ оквку № 325 63 63,3 10000.0 нет 23 июн.
ОАО МАБ "Темпбанк" ул. Крутицкий вал 54 61 1.0 нет 29.09.2017
БАНК "РЕЗЕРВ" (АО) ККО "Столичный" 59,85 60,95 100.0 нет 02.08.2017
"РИАБАНК" (АО) оквку "Нижегородская 8" 0 60,55 3000.0 нет 07.07.2017
"РИАБАНК" (АО) оквку "Нижегородская 8" 0 60,55 1000.0 нет 07.07.2017
АО "РФИ БАНК" оквку № 107 60,4 60,53 1000.0 нет 04.08.2017
АО "РФИ БАНК" оквку № 107 60,4 60,53 10000.0 нет 04.08.2017
АО "РФИ БАНК" оквку № 107 60,4 60,53 100000.0 нет 04.08.2017
"РИАБАНК" (АО) оквку "Площадь Ильича" 59,45 59,95 1000.0 нет 16.08.2017
"РИАБАНК" (АО) оквку "Площадь Ильича" 59,61 59,8 50000.0 нет 16.08.2017
"РИАБАНК" (АО) оквку "Площадь Ильича" 59,61 59,8 10000.0 нет 16.08.2017

Погода сейчас

+18°C
Солнечно, влажность 70%
Москва